Location: Unspecified
(0.0000°N, 0.0000°E)
Time: 21:15:26
(UTC+00:00)

Vanguard 1 - Pass Details

Date: 11 February 2018
Orbit: 650 x 3833 km, 34.3° (Epoch: 23 May)

Event Time Altitude Azimuth Distance (km) Brightness Sun altitude
Exits shadow 01:36:58 27° 119° (ESE) 3,710 13.0 -65.2°
Drops below altitude 10° 01:43:29 10° 123° (ESE) 5,592 14.2 -63.8°
Sets 01:48:54 0° 124° (SE) 7,068 14.8 -62.7°
